FLOCK 2K-39 (42866 NORAD) Tracking and Keplerian Element Data

This shows tracking and keplerian element data for the satellite.

Feedback or suggestion? Click here.




ElementValue
Catalog42866
NameFLOCK 2K-39
Epoch Orbit28086
Epoch Day192.85929247
Epoch Year2022
RAAN33.0738
Inclination96.8036
Eccentricity0.0007067
Argument of Perigee78.0257
Mean Anonmoly282.1801
Mean Motion15.74027503
Decay Rate0.00092119
L11 42866U 17042AT 22192.85929247 .00092119 00000+0 64237-3 0 9998
L22 42866 96.8036 33.0738 0007067 78.0257 282.1801 15.74027503280863



Live tracking and technical data element details for FLOCK 2K-39 (NORAD 42866). FLOCK 2K-39 can be tracked NOW for your location showing map with azimuth and elevation plus other details from your city location.







IsCatalogInMostPopularTable: catalog: 42866, numindb: 637
Update: records affected: 1



GetName: 42866 FLOCK 2K-39

Hit Count: updated at: Mon, 17 Jun 2024 22:38:27 GMT